Previsão horária em Almirante Tamandaré

Hoje, 26 Janeiro, Terça-feira

Tempo Temperatura Precipitação Vento Pressão Humidade
00:00 +18°C° 0.3 mm 0 m/s 677 mmHg 95%
01:00 +17°C° 0.1 mm 0 m/s 676 mmHg 95%
02:00 +19°C° 0.1 mm 1 m/s 676 mmHg 95%
03:00 +19°C° 0.1 mm 1 m/s 676 mmHg 96%
04:00 +19°C° 0 mm 1 m/s 676 mmHg 95%
05:00 +17°C° 0 mm 0 m/s 676 mmHg 95%
06:00 +17°C° 0 mm 0 m/s 676 mmHg 94%
07:00 +20°C° 0.1 mm 1 m/s 676 mmHg 92%
08:00 +21°C° 0.1 mm 1 m/s 677 mmHg 89%
09:00 +22°C° 0.1 mm 1 m/s 677 mmHg 86%
10:00 +22°C° 0.2 mm 1 m/s 677 mmHg 86%
11:00 +22°C° 0.2 mm 1 m/s 677 mmHg 85%
12:00 +22°C° 0.2 mm 1 m/s 677 mmHg 85%
13:00 +24°C° 0.3 mm 1 m/s 677 mmHg 81%
14:00 +25°C° 0.3 mm 1 m/s 677 mmHg 76%
15:00 +26°C° 0.3 mm 1 m/s 677 mmHg 72%
16:00 +25°C° 1.3 mm 1 m/s 676 mmHg 78%
17:00 +24°C° 1.3 mm 1 m/s 676 mmHg 84%
18:00 +23°C° 1.3 mm 1 m/s 676 mmHg 90%
19:00 +22°C° 0.6 mm 1 m/s 676 mmHg 91%
20:00 +22°C° 0.6 mm 1 m/s 676 mmHg 92%
21:00 +21°C° 0.6 mm 1 m/s 677 mmHg 93%
22:00 +21°C° 0.2 mm 1 m/s 677 mmHg 93%
23:00 +20°C° 0.2 mm 1 m/s 677 mmHg 94%

Amanhã, 27 Janeiro, Quarta-feira

Tempo Temperatura Precipitação Vento Pressão Humidade
00:00 +20°C° 0.2 mm 1 m/s 677 mmHg 94%
01:00 +20°C° 0 mm 1 m/s 676 mmHg 94%
02:00 +20°C° 0 mm 1 m/s 676 mmHg 94%
03:00 +20°C° 0 mm 1 m/s 675 mmHg 93%
04:00 +20°C° 0 mm 1 m/s 675 mmHg 94%
05:00 +19°C° 0 mm 1 m/s 675 mmHg 94%
06:00 +19°C° 0 mm 1 m/s 675 mmHg 94%
07:00 +21°C° 0 mm 1 m/s 676 mmHg 85%
08:00 +23°C° 0 mm 2 m/s 676 mmHg 76%
09:00 +25°C° 0 mm 2 m/s 677 mmHg 66%
10:00 +27°C° 0 mm 2 m/s 677 mmHg 60%
11:00 +29°C° 0 mm 3 m/s 677 mmHg 54%
12:00 +30°C° 0 mm 3 m/s 677 mmHg 48%
13:00 +30°C° 0.4 mm 3 m/s 676 mmHg 51%
14:00 +30°C° 0.4 mm 2 m/s 676 mmHg 55%
15:00 +29°C° 0.4 mm 2 m/s 675 mmHg 59%
16:00 +28°C° 0.4 mm 2 m/s 675 mmHg 65%
17:00 +27°C° 0.4 mm 2 m/s 674 mmHg 71%
18:00 +25°C° 0.4 mm 2 m/s 674 mmHg 77%
19:00 +24°C° 0.1 mm 2 m/s 675 mmHg 80%
20:00 +23°C° 0.1 mm 2 m/s 675 mmHg 82%
21:00 +21°C° 0.1 mm 2 m/s 675 mmHg 85%
22:00 +22°C° 0 mm 1 m/s 675 mmHg 86%
23:00 +22°C° 0 mm 1 m/s 675 mmHg 87%

Depois de amanhã, 28 Janeiro, Quinta-feira

Tempo Temperatura Precipitação Vento Pressão Humidade
00:00 +21°C° 0 mm 1 m/s 675 mmHg 88%
01:00 +21°C° 0 mm 1 m/s 674 mmHg 88%
02:00 +21°C° 0 mm 1 m/s 674 mmHg 88%
03:00 +21°C° 0 mm 1 m/s 674 mmHg 88%
04:00 +21°C° 0 mm 1 m/s 674 mmHg 88%
05:00 +21°C° 0 mm 1 m/s 674 mmHg 88%
06:00 +20°C° 0 mm 1 m/s 674 mmHg 88%
07:00 +21°C° 0 mm 2 m/s 675 mmHg 81%
08:00 +24°C° 0 mm 2 m/s 675 mmHg 74%
09:00 +25°C° 0 mm 2 m/s 676 mmHg 67%
10:00 +27°C° 0 mm 3 m/s 676 mmHg 61%
11:00 +29°C° 0 mm 3 m/s 676 mmHg 54%
12:00 +30°C° 0 mm 3 m/s 676 mmHg 48%
13:00 +30°C° 0.8 mm 3 m/s 676 mmHg 55%
14:00 +30°C° 0.8 mm 2 m/s 675 mmHg 61%
15:00 +29°C° 0.8 mm 2 m/s 675 mmHg 68%
16:00 +27°C° 1.2 mm 2 m/s 675 mmHg 75%
17:00 +25°C° 1.2 mm 2 m/s 674 mmHg 82%
18:00 +23°C° 1.2 mm 2 m/s 674 mmHg 89%
19:00 +21°C° 0.1 mm 2 m/s 674 mmHg 90%
20:00 +22°C° 0.1 mm 1 m/s 675 mmHg 91%
21:00 +21°C° 0.1 mm 1 m/s 675 mmHg 92%
22:00 +21°C° 0 mm 1 m/s 675 mmHg 92%
23:00 +21°C° 0 mm 1 m/s 675 mmHg 93%

29 Janeiro, Sexta-feira

Tempo Temperatura Precipitação Vento Pressão Humidade
00:00 +20°C° 0 mm 1 m/s 675 mmHg 93%
01:00 +20°C° 0.1 mm 1 m/s 675 mmHg 93%
02:00 +20°C° 0.1 mm 1 m/s 675 mmHg 93%
03:00 +20°C° 0.1 mm 1 m/s 674 mmHg 92%
04:00 +20°C° 0.2 mm 1 m/s 675 mmHg 92%
05:00 +20°C° 0.2 mm 1 m/s 675 mmHg 93%
06:00 +20°C° 0.2 mm 1 m/s 675 mmHg 93%
07:00 +21°C° 0.2 mm 1 m/s 675 mmHg 91%
08:00 +22°C° 0.2 mm 1 m/s 676 mmHg 89%
09:00 +21°C° 0.2 mm 2 m/s 676 mmHg 87%
10:00 +23°C° 0.1 mm 2 m/s 676 mmHg 86%
11:00 +23°C° 0.1 mm 2 m/s 676 mmHg 85%
12:00 +23°C° 0.1 mm 2 m/s 676 mmHg 84%
13:00 +24°C° 0.4 mm 2 m/s 676 mmHg 79%
14:00 +26°C° 0.4 mm 2 m/s 676 mmHg 73%
15:00 +27°C° 0.4 mm 2 m/s 675 mmHg 67%
16:00 +26°C° 0.7 mm 2 m/s 675 mmHg 74%
17:00 +25°C° 0.7 mm 2 m/s 675 mmHg 80%
18:00 +24°C° 0.7 mm 1 m/s 675 mmHg 87%
19:00 +23°C° 1.2 mm 1 m/s 675 mmHg 88%
20:00 +22°C° 1.2 mm 1 m/s 676 mmHg 90%
21:00 +21°C° 1.2 mm 1 m/s 676 mmHg 92%
22:00 +21°C° 0.1 mm 1 m/s 676 mmHg 92%
23:00 +21°C° 0.1 mm 1 m/s 676 mmHg 92%

30 Janeiro, Sábado

Tempo Temperatura Precipitação Vento Pressão Humidade
00:00 +19°C° 0.1 mm 0 m/s 676 mmHg 92%
01:00 +20°C° 0 mm 1 m/s 676 mmHg 92%
02:00 +20°C° 0 mm 1 m/s 675 mmHg 93%
03:00 +20°C° 0 mm 1 m/s 675 mmHg 93%
04:00 +20°C° 0 mm 1 m/s 675 mmHg 93%
05:00 +20°C° 0 mm 1 m/s 675 mmHg 93%
06:00 +20°C° 0 mm 1 m/s 676 mmHg 93%
07:00 +22°C° 0 mm 1 m/s 676 mmHg 84%
08:00 +24°C° 0 mm 2 m/s 677 mmHg 74%
09:00 +26°C° 0 mm 2 m/s 678 mmHg 65%
10:00 +27°C° 0 mm 2 m/s 678 mmHg 58%
11:00 +29°C° 0 mm 2 m/s 678 mmHg 51%
12:00 +31°C° 0 mm 2 m/s 678 mmHg 44%
13:00 +31°C° 0 mm 2 m/s 678 mmHg 42%
14:00 +32°C° 0 mm 2 m/s 678 mmHg 40%
15:00 +32°C° 0 mm 2 m/s 677 mmHg 38%
16:00 +31°C° 0 mm 2 m/s 677 mmHg 45%
17:00 +30°C° 0 mm 2 m/s 677 mmHg 52%
18:00 +28°C° 0 mm 1 m/s 677 mmHg 60%
19:00 +26°C° 0 mm 1 m/s 677 mmHg 68%
20:00 +24°C° 0 mm 1 m/s 677 mmHg 77%
21:00 +20°C° 0 mm 0 m/s 677 mmHg 85%
22:00 +20°C° 0 mm 0 m/s 677 mmHg 87%
23:00 +20°C° 0 mm 0 m/s 677 mmHg 89%

31 Janeiro, Domingo

Tempo Temperatura Precipitação Vento Pressão Humidade
00:00 +19°C° 0 mm 0 m/s 677 mmHg 91%
01:00 +19°C° 0 mm 0 m/s 676 mmHg 91%
02:00 +19°C° 0 mm 0 m/s 676 mmHg 92%
03:00 +19°C° 0 mm 0 m/s 676 mmHg 92%
04:00 +20°C° 0 mm 1 m/s 676 mmHg 93%
05:00 +20°C° 0 mm 1 m/s 676 mmHg 93%
06:00 +20°C° 0 mm 1 m/s 676 mmHg 93%
07:00 +22°C° 0 mm 1 m/s 677 mmHg 81%
08:00 +25°C° 0 mm 2 m/s 678 mmHg 69%
09:00 +27°C° 0 mm 2 m/s 679 mmHg 57%
10:00 +29°C° 0 mm 3 m/s 679 mmHg 52%
11:00 +30°C° 0 mm 3 m/s 678 mmHg 46%
12:00 +33°C° 0 mm 3 m/s 678 mmHg 41%
13:00 +33°C° 0 mm 3 m/s 678 mmHg 42%
14:00 +33°C° 0 mm 3 m/s 677 mmHg 43%
15:00 +32°C° 0 mm 2 m/s 677 mmHg 43%
16:00 +30°C° 0.2 mm 2 m/s 677 mmHg 51%
17:00 +29°C° 0.2 mm 2 m/s 677 mmHg 58%
18:00 +28°C° 0.2 mm 1 m/s 677 mmHg 66%
19:00 +26°C° 0.1 mm 1 m/s 676 mmHg 72%
20:00 +24°C° 0.1 mm 1 m/s 676 mmHg 78%
21:00 +23°C° 0.1 mm 1 m/s 676 mmHg 84%
22:00 +22°C° 0 mm 1 m/s 676 mmHg 85%
23:00 +20°C° 0 mm 0 m/s 676 mmHg 86%
Mostrar mais

Necessitamos do seu Consentimento

A Meteoprog e os seus Fornecedores de Serviços podem armazenar e aceder a dados pessoais como cookies, identificadores do dispositivo ou outras tecnologias semelhantes existentes no seu dispositivo e processar estes dados para personalizar conteúdos e anúncios, assim como funcionalidades nas redes sociais e análise de tráfego.

  • Armazenar e/ou aceder a informações no seu dispositivo

    Os cookies, identificadores do dispositivo ou outras informações podem ser armazenados ou acedidos no seu dispositivo, para os fins acima indicados.

  • Anúncios e conteúdos personalizados, medição de anúncios e conteúdos, dados sobre o público-alvo e desenvolvimento de produtos

    Os anúncios e os conteúdos podem ser personalizados com base num perfil. Podem ser adicionados dados adicionais para uma maior personalização dos anúncios e dos conteúdos. A eficácia dos anúncios e dos conteúdos pode ser medida. Podem ser obtidas informações sobre o público que visualizou os anúncios e os conteúdos. Estes dados podem ser usados para desenvolver ou melhorar sistemas, softwares ou a experiência do utilizador.

Ao clicar em "Eu concordo”, permitirá o uso de cookies, identificadores do dispositivo e web beacons mencionados ou outras tecnologias semelhantes. As configurações do navegador do seu dispositivo podem ser alteradas.

Para certos fins, podem ser invocados interesses legítimos ao invés de consentimento. Pode ler mais informação sobre este assunto na nossa Política de Privacidade e Cookies.